User: anonymous   Login
Location: Hopkins Observatory
(42.6965°N, 73.1843°W)
Time: 16:23:37
(UTC-04:00)
Language:

RS-15 - Orbit

View from above orbital plane
View from above orbital plane
View from above satellite
View from above satellite

Ground track
Ground track

The orbit data is extracted from the following two-line orbital elements,

1 23439U 94085A   17229.92163661 -.00000048 +00000-0 -15872-3 0  9992
2 23439 064.8158 119.3197 0165973 235.1755 201.9051 11.27566377932372
Epoch (UTC): 17 August 2017 22:07:09
Eccentricity: 0.0165973
inclination: 64.8158°
perigee height: 1883 km
apogee height: 2162 km
right ascension of ascending node: 119.3197°
argument of perigee: 235.1755°
revolutions per day: 11.27566377
mean anomaly at epoch: 201.9051°
orbit number at epoch: 93237

The dashed part of the orbit path shows where the satellite is in the earth's shadow,  

DLR